Emporia, VA

12:12 AM EST on December 10, 2019 (GMT -0500)
Emporia-Greensville Regional

Weather History for KEMV - October, 2019

Change the Weather History Date:

Tuesday, October 29, 2019

  Actual Average Record
Temperature  
Mean Temperature 60 °F -  
Max Temperature 69 °F 69 °F 86 °F (1984)
Min Temperature 50 °F 41 °F 32 °F (1988)
Degree Days  
Heating Degree Days 6    
Growing Degree Days 10 (Base 50)    
Moisture  
Dew Point 57 °F    
Average Humidity 91    
Maximum Humidity 100    
Minimum Humidity 71    
Precipitation  
Precipitation 0.00 in - - ()
Sea Level Pressure  
Sea Level Pressure 30.24 in    
Wind  
Wind Speed 1 mph (North)    
Max Wind Speed 7 mph    
Max Gust Speed -    
Visibility 9 miles    
Events      
Averages and records for this station are not official NWS values.
T = Trace of Precipitation, MM = Missing Value Source: NWS Daily Summary

Daily Weather History Graph

Daily Weather History Graph

Search for Another Location

Airport or City:

Astronomy

Oct. 29, 2019 Rise Set
Actual Time 7:30 AM EDT 6:16 PM EDT
Civil Twilight 7:03 AM EDT 6:43 PM EDT
Nautical Twilight 6:33 AM EDT 7:13 PM EDT
Astronomical Twilight 6:03 AM EDT 7:43 PM EDT
Moon 9:00 AM EDT (10/29) 7:41 PM EDT (10/29)
Length of Visible Light 11h 39m
Length of Day
10h 46m
Waxing Crescent, 3% of the Moon is Illuminated
Oct 29
Waxing Crescent
Nov 4
First Quarter
Nov 12
Full
Nov 19
Last Quarter
Nov 26
New

Hourly Weather History & Observations

Time (EDT) Temp. Dew Point Humidity Pressure Visibility Wind Dir Wind Speed Gust Speed Precip Events Conditions
12:15 AM 50.5 °F 50.5 °F 100% 30.22 in 7.0 mi Calm Calm - N/A   Clear
12:35 AM 50.7 °F 50.7 °F 100% 30.23 in 7.0 mi Calm Calm - N/A   Scattered Clouds
12:55 AM 50.5 °F 50.5 °F 100% 30.22 in 10.0 mi Calm Calm - N/A   Scattered Clouds
1:15 AM 50.5 °F 50.5 °F 100% 30.22 in 10.0 mi Calm Calm - N/A   Scattered Clouds
1:35 AM 51.8 °F 51.8 °F 100% 30.22 in - Calm Calm - N/A   Mostly Cloudy
1:55 AM 52.7 °F 52.7 °F 100% 30.22 in 10.0 mi Calm Calm - N/A   Overcast
2:15 AM 52.3 °F 52.2 °F 99% 30.21 in 10.0 mi Calm Calm - N/A   Overcast
2:35 AM 52.2 °F 52.0 °F 99% 30.21 in - Calm Calm - N/A   Unknown
2:55 AM 52.3 °F 52.0 °F 99% 30.21 in 10.0 mi ENE 3.5 mph - N/A   Mostly Cloudy
3:15 AM 52.9 °F 52.3 °F 98% 30.21 in 10.0 mi Calm Calm - N/A   Overcast
3:35 AM 51.8 °F 51.8 °F 100% 30.21 in 10.0 mi Calm Calm - N/A   Mostly Cloudy
3:55 AM 52.0 °F 51.8 °F 99% 30.22 in 10.0 mi Calm Calm - N/A   Overcast
4:15 AM 52.2 °F 52.2 °F 100% 30.21 in 10.0 mi Calm Calm - N/A   Overcast
4:55 AM 53.1 °F 52.9 °F 99% 30.22 in 10.0 mi ENE 4.6 mph - N/A   Overcast
5:15 AM 53.1 °F 52.7 °F 99% 30.22 in 10.0 mi Calm Calm - N/A   Mostly Cloudy
5:35 AM 53.2 °F 52.9 °F 99% 30.21 in 10.0 mi Calm Calm - N/A   Scattered Clouds
5:55 AM 52.7 °F 52.3 °F 99% 30.22 in 10.0 mi Calm Calm - N/A   Scattered Clouds
6:15 AM 52.7 °F 52.7 °F 100% 30.22 in 10.0 mi Calm Calm - N/A   Overcast
6:35 AM 53.6 °F 53.6 °F 100% 30.23 in 7.0 mi Calm Calm - N/A   Overcast
6:55 AM 54.0 °F 54.0 °F 100% 30.23 in 7.0 mi NNW 3.5 mph - N/A   Overcast
7:15 AM 54.0 °F 54.0 °F 100% 30.23 in 7.0 mi NW 4.6 mph - N/A   Overcast
7:35 AM 54.1 °F 54.1 °F 100% 30.24 in 7.0 mi NNW 3.5 mph - N/A   Overcast
7:55 AM 54.5 °F 54.5 °F 100% 30.24 in 7.0 mi NW 3.5 mph - N/A   Overcast
8:15 AM 54.5 °F 54.5 °F 100% 30.24 in 7.0 mi Calm Calm - N/A   Overcast
8:35 AM 55.0 °F 55.0 °F 100% 30.25 in 7.0 mi Calm Calm - N/A   Overcast
9:55 AM 59.0 °F 57.6 °F 95% 30.26 in 10.0 mi Calm Calm - N/A   Overcast
10:15 AM 59.9 °F 58.1 °F 94% 30.26 in 10.0 mi North 3.5 mph - N/A   Overcast
10:35 AM 61.3 °F 58.5 °F 90% 30.26 in 10.0 mi NNE 3.5 mph - N/A   Overcast
10:55 AM 62.8 °F 58.8 °F 87% 30.27 in 10.0 mi NE 4.6 mph - N/A   Overcast
11:15 AM 64.2 °F 59.4 °F 84% 30.27 in 10.0 mi NE 4.6 mph - N/A   Overcast
11:55 AM 65.8 °F 59.4 °F 80% 30.28 in - NNE 3.5 mph - N/A   Overcast
12:15 PM 65.8 °F 59.5 °F 80% 30.27 in 10.0 mi North 4.6 mph - N/A   Overcast
12:35 PM 66.6 °F 59.7 °F 79% 30.27 in 10.0 mi NNW 4.6 mph - N/A   Overcast
12:55 PM 67.6 °F 60.1 °F 77% 30.26 in 10.0 mi NNW 3.5 mph - N/A   Overcast
1:15 PM 69.3 °F 60.8 °F 74% 30.25 in 10.0 mi NW 4.6 mph - N/A   Overcast
1:35 PM 69.3 °F 60.4 °F 73% 30.24 in 10.0 mi NNW 6.9 mph - N/A   Overcast
1:55 PM 69.4 °F 59.9 °F 72% 30.23 in 10.0 mi NNW 5.8 mph - N/A   Overcast
2:35 PM 68.9 °F 59.4 °F 72% 30.23 in 10.0 mi North 3.5 mph - N/A   Overcast
2:55 PM 69.4 °F 59.9 °F 72% 30.23 in 10.0 mi North 3.5 mph - N/A   Overcast
3:15 PM 69.3 °F 59.5 °F 71% 30.23 in 10.0 mi Calm Calm - N/A   Overcast
4:15 PM 68.9 °F 59.7 °F 72% 30.22 in - NNW 5.8 mph - N/A   Overcast
4:35 PM 68.5 °F 60.1 °F 74% 30.23 in 10.0 mi North 3.5 mph - N/A   Mostly Cloudy
4:55 PM 68.0 °F 59.9 °F 75% 30.23 in 10.0 mi NNW 3.5 mph - N/A   Scattered Clouds
5:15 PM 67.5 °F 59.9 °F 77% 30.23 in 10.0 mi NNW 3.5 mph - N/A   Clear
5:35 PM 67.1 °F 60.3 °F 79% 30.23 in 10.0 mi Calm Calm - N/A   Clear
5:55 PM 66.2 °F 60.3 °F 81% 30.24 in 10.0 mi NNW 3.5 mph - N/A   Mostly Cloudy
6:15 PM 65.3 °F 60.8 °F 85% 30.24 in 10.0 mi NNW 3.5 mph - N/A   Overcast
6:35 PM 64.8 °F 60.3 °F 85% 30.24 in 10.0 mi Calm Calm - N/A   Mostly Cloudy
6:55 PM 64.4 °F 60.3 °F 86% 30.24 in 10.0 mi Calm Calm - N/A   Overcast
7:15 PM 63.3 °F 60.1 °F 89% 30.24 in 10.0 mi Calm Calm - N/A   Overcast
7:35 PM 62.4 °F 60.1 °F 92% 30.25 in - Calm Calm - N/A   Overcast
7:55 PM 62.1 °F 59.9 °F 93% 30.25 in 10.0 mi Calm Calm - N/A   Mostly Cloudy
8:15 PM 60.6 °F 59.5 °F 96% 30.25 in 10.0 mi Calm Calm - N/A   Scattered Clouds
8:35 PM 62.2 °F 59.9 °F 92% 30.25 in 10.0 mi Calm Calm - N/A   Mostly Cloudy
8:55 PM 61.7 °F 59.5 °F 93% 30.26 in 10.0 mi Calm Calm - N/A   Scattered Clouds
9:15 PM 59.4 °F 58.6 °F 97% 30.27 in 10.0 mi Calm Calm - N/A   Scattered Clouds
9:35 PM 59.7 °F 59.4 °F 99% 30.27 in 10.0 mi Calm Calm - N/A   Mostly Cloudy
9:55 PM 59.4 °F 59.2 °F 99% 30.27 in 10.0 mi Calm Calm - N/A   Overcast
10:15 PM 59.5 °F 59.0 °F 98% 30.28 in - Calm Calm - N/A   Unknown
10:35 PM 59.5 °F 59.0 °F 98% 30.28 in 10.0 mi Calm Calm - N/A   Mostly Cloudy
10:55 PM 58.3 °F 58.3 °F 100% 30.27 in 7.0 mi Calm Calm - N/A   Scattered Clouds
11:15 PM 57.4 °F 57.4 °F 100% 30.27 in 1.8 mi Calm Calm - N/A   Mostly Cloudy
11:35 PM 57.4 °F 57.4 °F 100% 30.27 in 3.0 mi Calm Calm - N/A   Scattered Clouds
11:55 PM 56.7 °F 56.7 °F 100% 30.26 in 0.5 mi Calm Calm - N/A   Mostly Cloudy